Location: ??????????
(54.4061°N, 22.6114°E)
Time: 19:55:22
(UTC+00:00)

STARLINK-64 - Pass Details

Date: 23 October 2019
Orbit: 545 x 554 km, 53.0° (Epoch: 15 November)

Event Time Altitude Azimuth Distance (km) Brightness Sun altitude
Rises 17:01:29 0° 276° (W) 2,734 9.0 -16.2°
Reaches altitude 10° 17:03:44 10° 273° (W) 1,839 7.6 -16.5°
Maximum altitude 17:07:52 65° 193° (SSW) 613 3.8 -17.1°
Enters shadow 17:09:30 34° 122° (ESE) 920 4.3 -17.4°
